STARLINK-34518 (64480 NORAD) Tracking and Keplerian Element Data

This shows tracking and keplerian element data for the satellite.

Feedback or suggestion? Click here.




ElementValue
Catalog64480
NameSTARLINK-34518
Epoch Orbit2862
Epoch Day352.64998331
Epoch Year2025
RAAN133.0246
Inclination53.1609
Eccentricity0.0001151
Argument of Perigee74.2517
Mean Anonmoly285.8611
Mean Motion15.30211241
Decay Rate0.00023598
L11 64480U 25133J 25352.64998331 .00023598 00000+0 80606-3 0 9995
L22 64480 53.1609 133.0246 0001151 74.2517 285.8611 15.30211241 28620



Live tracking and technical data element details for STARLINK-34518 (NORAD 64480). STARLINK-34518 can be tracked NOW for your location showing map with azimuth and elevation plus other details from your city location.







IsCatalogInMostPopularTable: catalog: 64480, numindb: 13
Update: records affected: 1



GetName: 64480 STARLINK-34518

Hit Count: updated at: Tue, 21 Apr 2026 20:07:15 GMT